Location: Endfield
(51.6667°N, 0.0667°W)
Time: 21:04:08
(UTC+00:00)

ATLAS 3B R/B - Pass Details

Date: 19 May 2024
Orbit: 942 x 1252 km, 63.8° (Epoch: 14 June)

Event Time Altitude Azimuth Distance (km) Brightness Sun altitude
Rises 21:40:33 0° 315° (NW) 4,184 7.6 -12.4°
Reaches altitude 10° 21:43:33 10° 307° (NW) 3,229 6.4 -12.6°
Maximum altitude 21:50:32 37° 245° (WSW) 1,858 4.0 -13.2°
Enters shadow 21:57:02 12° 183° (S) 3,067 4.6 -13.7°
